Location: Unspecified
(0.0000°N, 0.0000°E)
Time: 17:56:57
(UTC+00:00)

Altair - All Passes

Search period start: 18 June 2019 00:00
Search period end: 28 June 2019 00:00
Orbit: 1501 x 1683 km, 47.2° (Epoch: 18 June)

Date Brightness Start Highest point End Pass type
(mag) Time Alt. Az. Time Alt. Az. Time Alt. Az.
18 Jun - 05:02:57 10° NNW 05:12:50 56° NE 05:22:28 10° SE visible
18 Jun - 07:08:52 10° WNW 07:17:29 33° SW 07:25:56 10° S daylight
18 Jun - 15:50:52 10° S 15:57:23 21° SE 16:03:54 10° E daylight
18 Jun - 17:52:48 10° SW 18:01:58 75° NW 18:11:24 10° NE daylight
18 Jun - 20:03:10 10° WNW 20:07:05 13° NW 20:11:04 10° NNW visible
19 Jun - 04:37:54 10° NNW 04:47:37 50° NE 04:57:07 10° ESE visible
19 Jun - 06:43:18 10° WNW 06:52:17 37° SW 07:01:05 10° SSE daylight
19 Jun - 15:26:17 10° S 15:32:09 18° SE 15:38:03 10° E daylight
19 Jun - 17:27:37 10° SW 17:36:50 83° NW 17:46:16 10° NE daylight
19 Jun - 19:36:54 10° WNW 19:41:48 15° NW 19:46:49 10° NNW visible
20 Jun - 04:12:53 10° NNW 04:22:24 45° NE 04:31:44 10° ESE visible
20 Jun - 06:17:48 10° WNW 06:27:04 41° SW 06:36:10 10° SSE daylight
20 Jun - 15:01:48 10° SSE 15:06:56 16° SE 15:12:03 10° E daylight
20 Jun - 17:02:29 10° SW 17:11:41 88° SE 17:21:05 10° NE daylight
20 Jun - 19:10:53 10° W 19:16:32 18° NW 19:22:21 10° N visible
21 Jun - 03:47:54 10° NNW 03:57:11 40° NE 04:06:19 10° ESE visible
21 Jun - 05:52:20 10° WNW 06:01:52 46° SW 06:11:13 10° SSE daylight
21 Jun - 14:37:31 10° SSE 14:41:41 14° SE 14:45:50 10° ESE daylight
21 Jun - 16:37:22 10° SW 16:46:33 79° SE 16:55:55 10° NE daylight
21 Jun - 18:45:01 10° W 18:51:18 20° NW 18:57:44 10° N visible
22 Jun - 03:22:58 10° NNW 03:31:57 36° NE 03:40:50 10° ESE visible
22 Jun - 05:26:57 10° NW 05:36:41 52° SW 05:46:14 10° SSE visible
22 Jun - 14:13:39 10° SSE 14:16:25 11° SE 14:19:11 10° ESE daylight
22 Jun - 16:12:17 10° SSW 16:21:25 71° SE 16:30:41 10° NE daylight
22 Jun - 18:19:16 10° W 18:26:04 23° NW 18:33:02 10° N visible
23 Jun - 02:58:04 10° N 03:06:43 32° NE 03:15:17 10° ESE visible
23 Jun - 05:01:35 10° NW 05:11:28 58° SW 05:21:13 10° SSE visible
23 Jun - 15:47:14 10° SSW 15:56:17 63° SE 16:05:26 10° NE daylight
23 Jun - 17:53:37 10° W 18:00:51 26° NW 18:08:16 10° N daylight
24 Jun - 02:33:12 10° N 02:41:29 28° NE 02:49:41 10° ESE visible
24 Jun - 04:36:15 10° NW 04:46:17 65° SW 04:56:09 10° SSE visible
24 Jun - 06:48:55 10° WSW 06:51:35 11° SW 06:54:14 10° SSW daylight
24 Jun - 15:22:13 10° SSW 15:31:09 56° SE 15:40:08 10° NE daylight
24 Jun - 17:28:03 10° WSW 17:35:39 29° NW 17:43:27 10° N daylight
25 Jun - 02:08:24 10° N 02:16:13 25° NE 02:23:59 10° E visible
25 Jun - 04:10:58 10° NW 04:21:05 72° SW 04:31:04 10° SSE visible
25 Jun - 06:21:58 10° WSW 06:26:16 13° SW 06:30:33 10° SSW daylight
25 Jun - 14:57:13 10° SSW 15:06:00 50° SE 15:14:49 10° ENE daylight
25 Jun - 17:02:31 10° WSW 17:10:28 33° NW 17:18:35 10° NNE daylight
26 Jun - 01:43:39 10° N 01:50:57 22° NE 01:58:13 10° E visible
26 Jun - 03:45:42 10° NW 03:55:53 80° SW 04:05:57 10° SE visible
26 Jun - 05:55:34 10° W 06:00:58 16° SW 06:06:21 10° SSW daylight
26 Jun - 14:32:15 10° SSW 14:40:51 44° SE 14:49:27 10° ENE daylight
26 Jun - 16:37:05 10° WSW 16:45:18 37° NW 16:53:41 10° NNE daylight
27 Jun - 01:19:00 10° N 01:25:41 19° NE 01:32:20 10° E visible
27 Jun - 03:20:29 10° NW 03:30:41 88° SW 03:40:48 10° SE visible
27 Jun - 05:29:25 10° W 05:35:41 18° SW 05:41:54 10° S visible
27 Jun - 14:07:19 10° SSW 14:15:42 39° SE 14:24:03 10° ENE daylight
27 Jun - 16:11:40 10° WSW 16:20:08 42° NW 16:28:44 10° NNE daylight
